Temp
-9 -9 -9 -9 -9 -9 -10 -10 -10 -11 -11 -11 -11 -11 -11 -10 -10 -11 -12 -12 -12 -12 -12 -12 -11 -11 -10 -10 -10 -10 -10 -10 -10 -9 -9 -9 -9 -9 -9 -9 -8 -8 -8 -8 -8 -8 -8 -8 -8 -8 -7 -7 -7 -7 -7 -7 -7 -7 -7 -7 -7 -7 -7 -7 -7 -7 -7 -7 -7 -7 -7 -7 -7 -7
-9 -9 -9 -9 -9 -10 -10 -10 -10 -11 -11 -12 -12 -12 -12 -11 -11 -11 -12 -12 -12 -12 -12 -12 -12 -12 -11 -11 -10 -10 -10 -10 -10 -10 -9 -9 -9 -9 -9 -9 -9 -8 -8 -8 -8 -8 -8 -8 -8 -8 -7 -7 -7 -7 -7 -7 -7 -7 -7 -7 -7 -7 -7 -7 -7 -7 -7 -7 -7 -7 -7 -7 -7 -7
-10 -9 -9 -10 -10 -10 -10 -11 -11 -11 -12 -12 -12 -12 -12 -12 -12 -12 -12 -12 -12 -12 -12 -12 -12 -12 -12 -11 -11 -10 -10 -10 -10 -10 -9 -9 -9 -9 -9 -9 -9 -8 -8 -8 -8 -8 -7 -8 -8 -8 -8 -7 -7 -7 -7 -7 -7 -7 -7 -7 -7 -7 -7 -7 -7 -7 -7 -7 -7 -7 -7 -7 -7 -6
-10 -10 -10 -10 -10 -10 -11 -11 -11 -12 -12 -12 -12 -13 -13 -13 -13 -13 -12 -12 -13 -13 -12 -12 -12 -12 -12 -12 -11 -11 -10 -10 -10 -10 -10 -9 -9 -9 -9 -9 -9 -8 -8 -8 -8 -8 -8 -8 -8 -8 -8 -8 -7 -7 -7 -7 -7 -7 -7 -7 -7 -7 -7 -7 -7 -7 -7 -7 -7 -7 -7 -7 -7 -6
-10 -10 -10 -10 -10 -11 -11 -11 -11 -12 -12 -12 -12 -13 -13 -13 -13 -13 -13 -13 -13 -13 -13 -13 -12 -12 -12 -12 -12 -11 -10 -10 -10 -10 -10 -10 -9 -9 -9 -9 -9 -9 -8 -8 -8 -8 -8 -8 -8 -8 -8 -8 -8 -7 -7 -7 -7 -7 -7 -7 -7 -7 -7 -7 -7 -7 -7 -7 -7 -7 -7 -7 -7 -6
-10 -10 -10 -10 -10 -11 -11 -11 -11 -12 -12 -12 -12 -13 -13 -13 -13 -13 -13 -13 -13 -13 -13 -13 -13 -12 -12 -12 -12 -11 -11 -10 -10 -10 -10 -10 -10 -9 -9 -9 -9 -9 -9 -8 -8 -8 -8 -8 -8 -8 -8 -8 -8 -7 -7 -7 -7 -7 -7 -7 -7 -7 -7 -7 -7 -7 -7 -7 -7 -7 -7 -7 -7 -7
-10 -10 -10 -10 -11 -11 -11 -12 -12 -12 -12 -13 -13 -13 -13 -13 -13 -13 -13 -13 -13 -13 -13 -13 -13 -12 -12 -12 -12 -11 -11 -11 -10 -10 -10 -10 -10 -9 -9 -9 -9 -9 -9 -8 -8 -8 -8 -8 -8 -8 -8 -8 -7 -7 -7 -7 -7 -7 -7 -7 -7 -7 -7 -7 -7 -7 -7 -7 -7 -7 -7 -7 -7 -7
-10 -10 -10 -10 -11 -11 -12 -12 -12 -12 -12 -13 -13 -13 -13 -13 -13 -13 -13 -13 -13 -13 -13 -13 -13 -12 -12 -12 -12 -11 -11 -11 -10 -10 -10 -10 -10 -9 -9 -9 -9 -9 -9 -8 -8 -8 -8 -8 -8 -8 -8 -7 -7 -7 -7 -7 -7 -7 -7 -7 -7 -7 -7 -7 -7 -7 -7 -7 -7 -7 -7 -7 -7 -7
-10 -10 -10 -10 -11 -11 -12 -12 -12 -12 -12 -13 -13 -13 -13 -13 -13 -13 -13 -13 -13 -13 -13 -12 -13 -12 -12 -12 -12 -11 -11 -11 -11 -10 -10 -10 -10 -10 -9 -9 -9 -9 -9 -9 -8 -8 -8 -8 -8 -8 -8 -8 -8 -8 -8 -8 -8 -8 -7 -7 -7 -7 -7 -7 -7 -7 -7 -7 -7 -7 -7 -7 -7 -7
-10 -10 -10 -11 -11 -11 -12 -12 -12 -12 -13 -13 -13 -13 -13 -13 -13 -13 -13 -13 -13 -13 -13 -12 -12 -12 -12 -12 -11 -11 -11 -11 -11 -10 -10 -10 -10 -10 -9 -9 -9 -9 -9 -9 -8 -8 -8 -8 -8 -8 -8 -8 -8 -8 -8 -8 -8 -8 -8 -7 -7 -7 -7 -7 -7 -7 -7 -7 -7 -7 -7 -7 -7 -6
-10 -10 -10 -11 -11 -11 -12 -12 -12 -13 -13 -13 -13 -13 -13 -13 -13 -13 -13 -13 -13 -13 -13 -12 -12 -12 -12 -12 -11 -11 -11 -11 -11 -10 -10 -10 -10 -10 -9 -9 -10 -9 -9 -9 -9 -8 -8 -8 -8 -8 -8 -8 -8 -8 -8 -8 -8 -8 -8 -8 -8 -8 -8 -7 -7 -7 -7 -7 -7 -7 -7 -7 -7 -6
-11 -10 -11 -11 -11 -12 -12 -13 -13 -13 -13 -13 -13 -13 -13 -13 -13 -13 -13 -13 -13 -13 -12 -12 -12 -12 -12 -12 -11 -11 -11 -10 -10 -10 -10 -10 -10 -10 -10 -9 -9 -9 -9 -9 -9 -8 -8 -8 -8 -8 -8 -7 -8 -8 -8 -8 -8 -8 -8 -8 -8 -8 -8 -7 -7 -7 -7 -7 -7 -7 -7 -7 -7 -6
-11 -11 -11 -11 -12 -12 -12 -13 -13 -13 -13 -13 -14 -14 -14 -13 -13 -13 -13 -13 -13 -13 -12 -12 -12 -12 -12 -12 -11 -11 -11 -10 -10 -10 -10 -10 -10 -10 -10 -9 -9 -9 -9 -9 -9 -9 -8 -8 -8 -8 -7 -7 -7 -8 -8 -8 -8 -8 -8 -8 -8 -8 -8 -8 -8 -7 -7 -7 -7 -7 -7 -7 -7 -6
-11 -11 -11 -11 -12 -12 -13 -13 -13 -13 -14 -14 -14 -14 -14 -14 -13 -13 -13 -13 -13 -13 -13 -12 -12 -12 -12 -12 -11 -11 -11 -10 -10 -10 -10 -10 -10 -10 -10 -9 -9 -9 -9 -9 -9 -9 -9 -8 -8 -8 -7 -7 -7 -7 -7 -8 -8 -8 -8 -8 -8 -8 -8 -8 -8 -7 -7 -7 -7 -7 -7 -7 -7 -7
-11 -11 -11 -12 -12 -12 -13 -13 -13 -14 -14 -14 -14 -14 -14 -14 -14 -13 -13 -13 -13 -13 -13 -13 -13 -12 -12 -12 -12 -11 -11 -11 -10 -10 -10 -10 -10 -10 -10 -10 -10 -9 -9 -9 -9 -9 -9 -8 -8 -8 -7 -7 -7 -7 -7 -8 -8 -8 -8 -8 -8 -7 -7 -7 -7 -7 -7 -7 -7 -7 -7 -7 -7 -7
-11 -12 -12 -12 -12 -13 -13 -13 -14 -14 -14 -14 -14 -14 -14 -14 -14 -13 -13 -13 -13 -14 -13 -13 -13 -13 -12 -12 -12 -11 -11 -11 -10 -10 -10 -10 -10 -10 -10 -10 -10 -10 -10 -9 -9 -9 -9 -9 -8 -8 -8 -8 -8 -7 -8 -8 -8 -8 -8 -8 -8 -7 -7 -7 -7 -7 -7 -7 -7 -7 -7 -7 -7 -7
-12 -12 -12 -12 -12 -13 -13 -13 -14 -14 -14 -14 -14 -14 -14 -14 -14 -14 -13 -14 -14 -14 -14 -14 -14 -13 -12 -12 -12 -12 -11 -11 -11 -10 -10 -10 -10 -10 -10 -10 -10 -10 -10 -9 -9 -9 -9 -9 -8 -8 -8 -8 -8 -8 -8 -8 -8 -8 -8 -8 -8 -7 -7 -7 -7 -7 -7 -7 -7 -7 -7 -7 -7 -7
-12 -12 -12 -12 -13 -13 -13 -14 -14 -14 -14 -14 -14 -14 -14 -14 -14 -14 -14 -14 -14 -14 -14 -14 -14 -13 -13 -12 -12 -12 -11 -11 -11 -11 -10 -10 -10 -10 -10 -10 -10 -10 -10 -9 -9 -9 -9 -9 -8 -8 -8 -8 -8 -8 -8 -8 -8 -8 -8 -8 -7 -7 -7 -7 -7 -7 -7 -7 -7 -7 -7 -7 -7 -7
-12 -12 -12 -12 -13 -13 -14 -14 -14 -14 -14 -14 -14 -14 -14 -14 -14 -14 -14 -14 -14 -14 -14 -14 -14 -14 -13 -12 -11 -12 -12 -11 -11 -11 -10 -10 -10 -10 -9 -10 -10 -10 -10 -9 -9 -9 -9 -9 -8 -8 -9 -8 -8 -8 -8 -8 -8 -8 -8 -8 -7 -7 -7 -7 -7 -7 -7 -7 -7 -7 -7 -7 -7 -7
-13 -13 -13 -13 -13 -13 -14 -14 -14 -14 -14 -14 -14 -14 -14 -14 -14 -14 -14 -14 -14 -14 -14 -14 -14 -14 -13 -12 -11 -11 -11 -11 -11 -11 -10 -10 -10 -9 -9 -10 -10 -10 -10 -10 -9 -9 -9 -9 -9 -9 -9 -9 -8 -8 -8 -8 -8 -7 -7 -8 -7 -7 -7 -7 -7 -7 -7 -7 -7 -7 -7 -7 -7 -7
-13 -13 -13 -13 -13 -14 -14 -14 -14 -14 -14 -15 -14 -14 -14 -14 -14 -14 -14 -14 -14 -14 -14 -15 -15 -15 -14 -13 -12 -11 -11 -11 -11 -10 -10 -10 -10 -10 -9 -9 -10 -10 -10 -10 -9 -9 -9 -10 -9 -9 -9 -9 -9 -8 -8 -8 -8 -7 -7 -8 -8 -8 -7 -7 -7 -7 -7 -7 -7 -7 -7 -7 -7 -7
-13 -13 -13 -13 -13 -14 -14 -14 -14 -14 -15 -15 -15 -14 -14 -15 -15 -14 -14 -14 -14 -15 -15 -15 -15 -15 -15 -14 -13 -12 -11 -12 -11 -11 -10 -10 -10 -10 -10 -10 -10 -10 -10 -10 -10 -9 -9 -10 -10 -9 -9 -9 -9 -9 -8 -8 -8 -8 -8 -7 -7 -7 -7 -7 -7 -7 -7 -7 -7 -7 -7 -7 -7 -7
-13 -14 -14 -13 -13 -14 -14 -14 -14 -14 -15 -15 -15 -14 -14 -15 -14 -14 -14 -14 -14 -15 -15 -15 -15 -15 -15 -15 -13 -12 -12 -12 -11 -11 -10 -10 -10 -10 -10 -10 -10 -10 -10 -10 -10 -9 -9 -10 -10 -10 -9 -9 -9 -9 -9 -8 -8 -8 -8 -7 -7 -7 -7 -7 -7 -7 -7 -7 -7 -7 -7 -7 -7 -7
-14 -14 -14 -14 -14 -14 -14 -14 -14 -15 -15 -15 -15 -14 -14 -14 -14 -14 -14 -14 -14 -15 -15 -15 -15 -15 -15 -15 -13 -12 -12 -12 -11 -11 -11 -10 -10 -10 -10 -10 -10 -10 -10 -10 -10 -10 -10 -10 -10 -10 -9 -9 -9 -9 -9 -8 -8 -8 -8 -7 -7 -7 -7 -7 -7 -7 -7 -8 -8 -8 -8 -7 -7 -7
-14 -14 -14 -14 -14 -14 -15 -15 -15 -15 -15 -15 -15 -14 -14 -14 -14 -14 -14 -14 -15 -15 -15 -15 -15 -15 -15 -15 -14 -12 -12 -12 -11 -11 -11 -10 -10 -10 -10 -10 -10 -10 -10 -10 -10 -10 -10 -10 -10 -10 -9 -9 -9 -9 -9 -8 -8 -8 -8 -7 -7 -8 -7 -7 -7 -7 -8 -8 -8 -8 -8 -8 -8 -8
-14 -14 -14 -14 -14 -15 -15 -15 -15 -15 -15 -14 -15 -14 -14 -14 -14 -14 -14 -14 -15 -15 -15 -15 -15 -15 -15 -15 -14 -13 -12 -12 -11 -11 -11 -10 -10 -10 -10 -11 -10 -10 -11 -11 -10 -10 -10 -10 -10 -10 -9 -9 -9 -9 -9 -8 -8 -8 -8 -8 -8 -8 -8 -7 -7 -7 -8 -8 -8 -8 -8 -8 -8 -8
-14 -14 -14 -15 -15 -15 -15 -15 -15 -15 -15 -15 -15 -15 -14 -15 -14 -14 -15 -15 -15 -15 -15 -15 -15 -15 -15 -15 -14 -13 -12 -12 -12 -11 -11 -10 -10 -10 -11 -11 -11 -11 -11 -11 -11 -10 -10 -10 -10 -9 -9 -9 -9 -9 -9 -8 -8 -8 -8 -8 -8 -8 -8 -8 -8 -8 -8 -8 -8 -8 -8 -8 -8 -7
-15 -15 -15 -15 -15 -15 -15 -15 -15 -15 -15 -15 -15 -15 -15 -15 -15 -14 -15 -15 -15 -15 -15 -15 -15 -15 -15 -15 -14 -13 -13 -13 -12 -11 -11 -11 -11 -11 -11 -11 -11 -11 -11 -11 -11 -10 -10 -10 -9 -9 -9 -9 -9 -9 -9 -8 -8 -8 -8 -8 -8 -8 -8 -8 -8 -8 -8 -8 -8 -8 -8 -8 -7 -7
-15 -15 -15 -15 -15 -15 -15 -15 -15 -15 -15 -15 -15 -15 -15 -15 -15 -15 -15 -15 -15 -15 -15 -15 -15 -15 -15 -15 -15 -14 -13 -13 -12 -12 -11 -11 -11 -11 -12 -11 -11 -11 -11 -11 -10 -10 -10 -9 -9 -9 -9 -9 -9 -9 -9 -8 -8 -8 -8 -8 -8 -8 -8 -8 -8 -8 -8 -8 -8 -8 -8 -8 -8 -8
-15 -15 -15 -15 -15 -15 -15 -15 -15 -15 -15 -15 -15 -15 -15 -15 -15 -15 -15 -15 -15 -15 -15 -15 -15 -15 -15 -15 -15 -14 -13 -13 -12 -12 -12 -12 -12 -12 -12 -12 -11 -11 -11 -11 -11 -10 -10 -9 -9 -9 -9 -8 -8 -9 -9 -9 -8 -8 -8 -8 -8 -8 -8 -8 -8 -8 -8 -8 -8 -8 -8 -8 -8 -8
-15 -15 -15 -15 -15 -15 -15 -15 -16 -15 -15 -15 -15 -15 -15 -15 -15 -15 -15 -15 -15 -15 -15 -15 -15 -15 -15 -14 -14 -14 -14 -13 -12 -12 -12 -12 -12 -12 -12 -12 -11 -11 -11 -11 -11 -10 -10 -9 -9 -9 -9 -9 -9 -9 -9 -9 -8 -8 -8 -8 -8 -8 -8 -8 -8 -8 -8 -8 -8 -8 -8 -8 -8 -8
-16 -16 -16 -16 -15 -15 -15 -16 -16 -15 -15 -15 -15 -15 -15 -15 -15 -15 -15 -15 -15 -15 -15 -15 -15 -15 -15 -15 -14 -14 -14 -13 -12 -12 -12 -12 -12 -12 -11 -11 -11 -11 -10 -11 -11 -10 -10 -10 -9 -10 -10 -9 -9 -9 -9 -9 -8 -8 -8 -8 -8 -8 -8 -8 -8 -8 -8 -8 -8 -8 -8 -8 -8 -8
-16 -16 -16 -15 -15 -15 -15 -16 -16 -15 -15 -15 -15 -15 -15 -15 -15 -15 -15 -15 -15 -15 -15 -15 -15 -15 -15 -15 -14 -14 -13 -13 -12 -12 -12 -12 -12 -12 -11 -11 -11 -10 -10 -10 -10 -10 -10 -10 -10 -10 -10 -9 -9 -9 -9 -9 -9 -9 -8 -8 -8 -8 -8 -8 -8 -8 -8 -8 -8 -8 -8 -8 -8 -8
-16 -16 -16 -15 -15 -15 -15 -16 -16 -15 -15 -15 -15 -15 -15 -15 -15 -15 -15 -15 -15 -15 -15 -15 -15 -15 -15 -15 -15 -14 -14 -13 -12 -12 -12 -12 -11 -11 -11 -11 -11 -10 -10 -10 -10 -10 -10 -10 -9 -9 -9 -9 -9 -9 -9 -9 -9 -9 -8 -8 -8 -9 -9 -8 -8 -8 -8 -8 -8 -8 -8 -8 -8 -8
-16 -16 -16 -15 -15 -15 -16 -16 -16 -15 -15 -15 -15 -15 -15 -15 -15 -15 -15 -15 -15 -15 -15 -15 -15 -15 -15 -15 -15 -14 -14 -13 -12 -12 -12 -11 -11 -11 -11 -11 -11 -10 -10 -10 -10 -10 -10 -10 -9 -9 -9 -9 -9 -9 -9 -9 -9 -9 -8 -8 -9 -9 -9 -9 -8 -8 -8 -8 -8 -8 -8 -8 -8 -8
-16 -16 -16 -16 -15 -16 -16 -16 -16 -16 -16 -15 -15 -15 -15 -15 -15 -15 -15 -15 -15 -15 -15 -15 -15 -15 -15 -15 -15 -15 -14 -13 -13 -12 -12 -11 -11 -11 -11 -11 -11 -10 -10 -10 -10 -10 -10 -10 -10 -10 -9 -9 -9 -9 -9 -9 -9 -9 -9 -9 -9 -9 -9 -9 -9 -9 -8 -8 -8 -8 -8 -8 -8 -8
-16 -16 -16 -16 -16 -16 -16 -16 -16 -16 -16 -16 -15 -15 -15 -15 -15 -15 -15 -15 -15 -15 -15 -15 -15 -15 -16 -15 -15 -15 -15 -14 -13 -12 -12 -12 -11 -11 -11 -10 -10 -10 -11 -11 -11 -11 -10 -10 -10 -10 -10 -9 -9 -9 -9 -10 -10 -9 -9 -9 -9 -9 -9 -9 -9 -9 -9 -8 -8 -8 -8 -8 -8 -8
-16 -16 -16 -16 -16 -16 -16 -16 -16 -16 -16 -16 -15 -15 -15 -15 -15 -15 -15 -15 -15 -15 -15 -15 -15 -15 -15 -15 -15 -15 -15 -15 -14 -13 -12 -12 -11 -11 -11 -11 -10 -10 -10 -11 -11 -11 -10 -10 -10 -9 -9 -9 -9 -9 -9 -10 -10 -9 -9 -9 -9 -9 -9 -9 -9 -9 -9 -9 -9 -8 -8 -8 -8 -8
-16 -16 -16 -16 -16 -16 -16 -16 -16 -16 -16 -16 -15 -15 -15 -15 -15 -15 -15 -15 -15 -15 -15 -15 -15 -15 -15 -15 -15 -15 -15 -15 -15 -14 -13 -12 -12 -11 -11 -11 -11 -10 -10 -10 -10 -10 -10 -10 -9 -9 -9 -9 -9 -9 -9 -9 -9 -9 -9 -9 -9 -9 -9 -9 -9 -9 -9 -9 -9 -8 -8 -8 -8 -8
-16 -16 -16 -16 -16 -16 -16 -16 -16 -16 -16 -16 -16 -15 -15 -15 -15 -15 -15 -15 -15 -15 -15 -15 -15 -15 -15 -15 -15 -15 -15 -15 -15 -15 -13 -12 -12 -12 -11 -11 -11 -10 -10 -10 -10 -10 -10 -10 -10 -10 -10 -10 -10 -9 -9 -9 -9 -9 -9 -9 -9 -9 -9 -9 -9 -9 -9 -9 -9 -9 -8 -8 -8 -8
-16 -16 -16 -16 -17 -17 -17 -17 -16 -16 -16 -16 -16 -16 -16 -16 -15 -15 -15 -15 -15 -15 -15 -15 -15 -15 -15 -15 -15 -15 -15 -15 -15 -15 -14 -13 -12 -12 -12 -11 -11 -11 -11 -10 -10 -10 -10 -10 -10 -10 -10 -9 -9 -9 -9 -9 -9 -9 -9 -9 -9 -9 -9 -9 -9 -9 -9 -9 -9 -9 -8 -8 -8 -8
-17 -17 -17 -17 -17 -17 -17 -17 -17 -16 -16 -16 -16 -16 -16 -16 -16 -16 -15 -15 -15 -15 -15 -15 -15 -15 -15 -15 -15 -15 -15 -15 -15 -15 -15 -14 -13 -13 -12 -12 -11 -11 -11 -11 -10 -10 -10 -10 -10 -9 -9 -9 -9 -9 -9 -9 -9 -9 -9 -9 -9 -9 -9 -9 -9 -9 -9 -9 -9 -9 -9 -9 -8 -8
-17 -17 -17 -17 -17 -17 -17 -17 -17 -17 -17 -16 -16 -16 -16 -16 -16 -16 -16 -16 -16 -15 -15 -15 -15 -15 -15 -15 -15 -15 -15 -15 -15 -15 -15 -15 -14 -14 -13 -12 -12 -11 -11 -11 -10 -10 -10 -9 -9 -9 -9 -9 -9 -9 -9 -9 -9 -9 -9 -9 -9 -9 -9 -9 -9 -9 -9 -9 -9 -9 -9 -9 -9 -9
-17 -17 -17 -17 -17 -17 -17 -17 -17 -17 -17 -17 -16 -16 -16 -16 -16 -16 -16 -16 -16 -16 -15 -15 -15 -15 -15 -15 -15 -15 -15 -15 -15 -15 -15 -15 -14 -14 -14 -13 -12 -12 -11 -11 -11 -10 -10 -10 -9 -9 -10 -9 -9 -9 -9 -9 -9 -9 -9 -9 -9 -9 -9 -9 -9 -9 -9 -9 -9 -9 -9 -9 -9 -9
-17 -17 -17 -17 -17 -17 -17 -17 -17 -17 -17 -17 -17 -16 -16 -16 -16 -16 -16 -16 -16 -16 -15 -15 -15 -15 -15 -15 -15 -15 -15 -15 -15 -15 -15 -15 -14 -14 -14 -14 -13 -13 -12 -11 -11 -11 -11 -10 -10 -10 -9 -9 -9 -9 -9 -9 -9 -10 -10 -9 -9 -9 -9 -9 -9 -9 -9 -9 -9 -9 -9 -9 -9 -9
Height
5826 5823 5820 5817 5815 5811 5808 5806 5804 5801 5799 5797 5796 5795 5794 5794 5795 5795 5795 5794 5792 5791 5792 5792 5792 5791 5792 5793 5796 5798 5800 5801 5801 5803 5805 5808 5811 5813 5815 5818 5821 5823 5826 5828 5830 5833 5836 5839 5841 5844 5846 5849 5851 5854 5856 5858 5861 5863 5865 5867 5869 5871 5873 5875 5877 5879 5880 5882 5883 5884 5886 5887 5888 5889
5821 5818 5816 5813 5810 5807 5804 5801 5799 5797 5794 5791 5790 5789 5788 5787 5787 5788 5790 5790 5788 5786 5786 5786 5786 5785 5785 5787 5789 5791 5793 5795 5795 5796 5798 5802 5805 5807 5809 5811 5814 5817 5820 5823 5825 5827 5830 5833 5836 5838 5841 5843 5846 5848 5851 5853 5856 5858 5860 5862 5865 5867 5869 5871 5873 5875 5876 5878 5880 5881 5882 5884 5885 5886
5817 5814 5811 5808 5805 5802 5799 5796 5794 5792 5789 5787 5785 5783 5782 5781 5781 5781 5782 5784 5783 5781 5781 5781 5781 5780 5779 5780 5782 5784 5786 5788 5789 5790 5792 5795 5798 5800 5802 5805 5808 5810 5813 5817 5820 5823 5825 5828 5830 5833 5835 5838 5840 5843 5845 5848 5851 5853 5855 5858 5860 5863 5865 5867 5869 5871 5872 5874 5876 5877 5879 5880 5882 5883
5812 5809 5806 5803 5800 5798 5795 5792 5790 5787 5785 5782 5781 5779 5777 5776 5775 5775 5776 5777 5777 5776 5775 5775 5775 5774 5774 5774 5775 5777 5779 5781 5783 5784 5786 5788 5791 5793 5796 5798 5801 5804 5807 5810 5814 5817 5821 5823 5826 5828 5830 5832 5835 5837 5839 5842 5845 5848 5850 5853 5855 5858 5860 5863 5865 5867 5868 5870 5872 5874 5875 5877 5878 5880
5808 5805 5802 5799 5796 5794 5791 5788 5786 5783 5780 5778 5776 5775 5773 5770 5769 5770 5770 5770 5771 5771 5769 5769 5769 5768 5768 5768 5768 5769 5773 5774 5776 5778 5780 5782 5784 5787 5789 5792 5795 5798 5801 5804 5807 5811 5815 5818 5820 5823 5825 5827 5829 5831 5834 5836 5839 5842 5845 5847 5850 5853 5855 5858 5860 5863 5864 5866 5868 5870 5872 5873 5875 5876
5804 5801 5798 5795 5792 5789 5787 5784 5782 5779 5777 5774 5772 5770 5768 5766 5764 5764 5764 5765 5765 5766 5765 5763 5762 5761 5762 5763 5762 5762 5765 5767 5769 5771 5774 5776 5778 5780 5783 5785 5788 5791 5794 5798 5801 5804 5808 5812 5815 5817 5820 5822 5824 5826 5829 5831 5833 5836 5839 5842 5845 5847 5850 5853 5856 5858 5860 5862 5864 5866 5868 5869 5871 5872
5800 5797 5794 5791 5788 5785 5783 5781 5778 5776 5773 5771 5768 5766 5764 5763 5760 5758 5759 5759 5760 5760 5759 5758 5757 5755 5755 5756 5756 5756 5758 5760 5762 5764 5767 5769 5771 5774 5776 5779 5782 5785 5788 5791 5795 5798 5802 5805 5809 5812 5815 5817 5819 5821 5823 5826 5828 5831 5834 5836 5839 5842 5845 5848 5851 5853 5855 5858 5860 5861 5863 5865 5866 5868
5796 5793 5790 5787 5784 5781 5779 5776 5774 5772 5769 5767 5765 5763 5761 5759 5757 5755 5754 5754 5754 5753 5753 5752 5751 5749 5749 5749 5750 5749 5751 5753 5755 5757 5760 5762 5765 5767 5769 5772 5775 5778 5781 5784 5788 5791 5795 5798 5802 5806 5809 5812 5814 5816 5818 5821 5823 5826 5829 5831 5834 5837 5840 5843 5846 5848 5851 5853 5855 5857 5859 5861 5862 5864
5791 5788 5786 5782 5780 5777 5775 5773 5770 5767 5765 5763 5761 5759 5757 5755 5753 5752 5750 5749 5749 5748 5747 5746 5745 5743 5742 5742 5743 5742 5744 5747 5748 5750 5753 5755 5758 5760 5763 5766 5769 5771 5774 5777 5781 5785 5788 5792 5796 5800 5803 5806 5809 5811 5814 5816 5819 5821 5824 5826 5829 5832 5835 5838 5841 5843 5846 5848 5850 5852 5854 5856 5858 5859
5787 5784 5782 5779 5776 5774 5771 5769 5766 5764 5761 5759 5757 5755 5753 5751 5749 5748 5746 5745 5743 5742 5741 5739 5738 5737 5735 5735 5735 5735 5737 5740 5741 5743 5745 5748 5750 5753 5756 5759 5762 5765 5767 5770 5774 5778 5782 5786 5789 5793 5797 5801 5804 5806 5809 5812 5814 5817 5819 5821 5824 5827 5830 5833 5836 5838 5841 5843 5845 5847 5849 5851 5853 5855
5782 5780 5778 5775 5772 5770 5767 5765 5762 5760 5758 5756 5754 5751 5749 5747 5745 5744 5742 5740 5738 5737 5736 5734 5732 5730 5729 5728 5728 5728 5730 5732 5734 5736 5738 5741 5743 5746 5749 5753 5755 5758 5760 5763 5767 5771 5775 5779 5782 5786 5790 5794 5798 5801 5804 5807 5809 5812 5814 5817 5819 5822 5825 5828 5830 5833 5835 5838 5840 5842 5844 5846 5848 5850
5778 5776 5773 5771 5768 5766 5764 5761 5759 5756 5754 5752 5750 5747 5745 5743 5741 5739 5738 5736 5734 5732 5730 5728 5725 5724 5722 5721 5721 5722 5723 5725 5727 5729 5731 5734 5737 5739 5743 5746 5749 5751 5754 5757 5760 5764 5768 5772 5776 5780 5783 5788 5792 5796 5799 5802 5804 5807 5810 5812 5815 5817 5820 5822 5825 5828 5830 5832 5834 5836 5838 5841 5843 5845
5773 5771 5769 5767 5764 5762 5760 5757 5755 5753 5750 5748 5745 5743 5740 5738 5737 5735 5733 5731 5728 5726 5724 5722 5719 5717 5715 5714 5714 5715 5715 5717 5720 5721 5724 5727 5730 5732 5735 5739 5743 5745 5748 5750 5754 5758 5762 5766 5770 5773 5777 5782 5786 5790 5793 5797 5800 5803 5805 5807 5809 5812 5814 5817 5819 5822 5824 5827 5829 5831 5833 5835 5837 5840
5769 5767 5764 5762 5760 5758 5756 5753 5751 5749 5746 5744 5741 5739 5736 5734 5732 5730 5728 5725 5723 5720 5718 5716 5713 5711 5709 5707 5707 5708 5708 5710 5713 5714 5717 5720 5723 5725 5728 5732 5736 5738 5741 5744 5748 5752 5756 5760 5764 5768 5772 5777 5780 5784 5788 5792 5795 5798 5799 5801 5803 5806 5809 5811 5813 5816 5818 5820 5823 5825 5827 5829 5832 5834
5766 5763 5760 5758 5756 5754 5752 5749 5747 5745 5742 5740 5737 5734 5732 5729 5727 5724 5722 5720 5717 5714 5712 5710 5707 5705 5703 5701 5700 5701 5702 5704 5706 5708 5710 5713 5716 5718 5721 5725 5729 5731 5734 5737 5741 5746 5750 5753 5757 5762 5766 5771 5774 5778 5783 5786 5789 5791 5793 5795 5798 5800 5803 5805 5808 5810 5812 5814 5817 5819 5821 5824 5826 5828
5763 5760 5757 5754 5752 5749 5747 5745 5743 5741 5738 5736 5733 5731 5728 5725 5722 5719 5717 5715 5712 5709 5707 5705 5702 5699 5697 5696 5694 5694 5695 5697 5699 5701 5703 5706 5709 5711 5715 5719 5722 5725 5727 5730 5735 5740 5743 5746 5751 5756 5760 5765 5768 5772 5777 5780 5782 5785 5787 5790 5792 5795 5798 5800 5803 5805 5807 5809 5811 5814 5816 5818 5821 5823
5759 5757 5754 5751 5748 5745 5743 5741 5739 5736 5734 5732 5730 5727 5724 5721 5718 5715 5712 5710 5707 5704 5702 5700 5697 5693 5691 5690 5689 5688 5688 5690 5691 5693 5696 5699 5702 5705 5708 5712 5716 5718 5719 5723 5729 5734 5737 5740 5744 5750 5755 5759 5763 5767 5771 5774 5777 5780 5783 5785 5787 5790 5792 5795 5798 5800 5802 5804 5806 5809 5811 5813 5816 5818
5755 5753 5751 5747 5744 5741 5739 5737 5735 5732 5730 5728 5726 5723 5720 5717 5714 5710 5707 5705 5702 5699 5696 5692 5690 5687 5685 5683 5682 5682 5682 5683 5684 5686 5688 5692 5695 5699 5701 5705 5709 5712 5713 5717 5722 5728 5732 5734 5738 5745 5750 5754 5757 5762 5766 5768 5771 5774 5777 5780 5783 5785 5787 5790 5793 5795 5797 5799 5801 5804 5806 5808 5810 5812
5751 5749 5747 5744 5740 5738 5735 5733 5730 5728 5726 5724 5722 5719 5716 5713 5710 5706 5703 5701 5697 5694 5690 5686 5683 5680 5678 5676 5675 5676 5676 5676 5676 5678 5680 5684 5688 5691 5695 5699 5704 5706 5708 5711 5715 5722 5727 5728 5733 5741 5745 5748 5752 5756 5760 5763 5766 5769 5772 5775 5778 5780 5783 5785 5788 5790 5792 5794 5796 5799 5801 5803 5805 5807
5747 5745 5742 5740 5736 5733 5731 5729 5726 5724 5722 5720 5718 5715 5713 5710 5706 5703 5700 5696 5693 5690 5686 5682 5678 5675 5672 5669 5668 5669 5670 5669 5670 5671 5673 5676 5679 5683 5688 5693 5697 5701 5703 5704 5708 5716 5721 5722 5727 5736 5740 5742 5746 5750 5753 5757 5760 5764 5767 5770 5773 5775 5778 5780 5783 5785 5788 5790 5792 5794 5796 5798 5800 5802
5742 5740 5738 5735 5732 5729 5727 5725 5722 5720 5718 5716 5713 5711 5709 5706 5703 5700 5696 5693 5689 5686 5682 5678 5674 5670 5666 5663 5661 5663 5663 5663 5662 5663 5667 5669 5672 5676 5682 5686 5691 5694 5696 5697 5702 5709 5715 5717 5721 5729 5734 5736 5740 5745 5748 5751 5755 5758 5762 5765 5767 5770 5773 5775 5778 5781 5783 5785 5787 5789 5792 5794 5796 5797
5737 5735 5733 5730 5728 5725 5723 5721 5718 5716 5714 5712 5710 5707 5705 5703 5700 5696 5694 5690 5687 5683 5679 5675 5670 5666 5662 5658 5656 5656 5657 5656 5655 5656 5659 5662 5665 5670 5674 5679 5683 5686 5688 5692 5696 5703 5709 5712 5716 5722 5727 5730 5735 5739 5743 5746 5749 5752 5756 5759 5762 5765 5768 5771 5774 5776 5778 5780 5783 5785 5787 5789 5791 5794
5732 5729 5727 5725 5723 5721 5719 5717 5714 5712 5710 5708 5706 5703 5701 5699 5696 5693 5690 5687 5685 5681 5677 5672 5668 5664 5659 5654 5651 5650 5651 5650 5649 5649 5652 5656 5660 5663 5667 5672 5675 5679 5685 5688 5691 5697 5704 5707 5711 5716 5721 5725 5730 5735 5737 5741 5744 5747 5751 5754 5757 5760 5763 5766 5769 5771 5774 5776 5779 5781 5783 5785 5787 5790
5726 5724 5722 5720 5718 5716 5714 5712 5710 5708 5706 5703 5701 5699 5697 5695 5692 5689 5686 5683 5681 5679 5675 5670 5665 5660 5655 5650 5646 5645 5645 5644 5644 5644 5647 5650 5654 5657 5662 5666 5670 5675 5681 5683 5684 5691 5698 5701 5705 5711 5715 5719 5725 5729 5732 5735 5738 5741 5745 5749 5752 5755 5758 5761 5764 5767 5770 5772 5774 5777 5778 5781 5783 5786
5721 5718 5716 5715 5713 5711 5709 5708 5705 5703 5701 5699 5697 5695 5693 5691 5689 5686 5683 5680 5677 5674 5670 5666 5661 5655 5651 5646 5642 5640 5639 5639 5639 5639 5641 5645 5648 5652 5657 5661 5665 5671 5675 5676 5679 5685 5691 5695 5700 5704 5709 5714 5719 5723 5726 5730 5733 5736 5740 5743 5747 5750 5753 5756 5759 5762 5764 5767 5769 5772 5774 5776 5778 5781
5716 5713 5711 5710 5708 5706 5705 5703 5701 5699 5697 5695 5693 5691 5689 5687 5685 5682 5679 5677 5674 5670 5665 5661 5656 5651 5646 5641 5637 5636 5634 5633 5633 5634 5636 5639 5643 5647 5652 5656 5660 5665 5669 5670 5673 5679 5685 5689 5694 5698 5704 5709 5714 5717 5721 5725 5728 5731 5735 5738 5742 5746 5748 5751 5754 5757 5759 5762 5764 5767 5769 5771 5774 5776
5710 5709 5707 5705 5703 5702 5700 5698 5696 5694 5693 5691 5689 5687 5685 5683 5680 5678 5676 5673 5670 5666 5662 5657 5652 5647 5642 5638 5634 5631 5629 5628 5628 5629 5631 5635 5639 5643 5647 5650 5654 5658 5661 5663 5667 5673 5680 5685 5689 5693 5699 5704 5708 5712 5716 5720 5724 5727 5730 5734 5737 5740 5743 5746 5749 5752 5755 5757 5760 5762 5764 5767 5769 5771
5706 5704 5702 5701 5699 5697 5695 5693 5691 5690 5688 5686 5685 5683 5681 5679 5677 5675 5672 5670 5666 5663 5658 5654 5649 5644 5639 5635 5631 5627 5625 5624 5624 5625 5628 5631 5635 5639 5642 5645 5648 5652 5655 5658 5664 5670 5676 5680 5684 5689 5694 5699 5704 5708 5712 5715 5719 5722 5725 5728 5731 5734 5738 5741 5745 5747 5750 5753 5755 5758 5761 5763 5765 5767
5701 5699 5698 5696 5694 5692 5690 5688 5688 5686 5684 5682 5681 5679 5678 5676 5673 5671 5669 5667 5664 5660 5656 5651 5647 5642 5637 5633 5628 5624 5622 5622 5622 5622 5625 5628 5631 5634 5637 5639 5642 5646 5651 5655 5661 5667 5672 5677 5680 5685 5690 5696 5701 5705 5708 5711 5714 5717 5720 5723 5726 5729 5733 5736 5740 5742 5745 5748 5752 5754 5757 5758 5760 5762
5696 5694 5693 5691 5689 5686 5685 5684 5684 5682 5680 5679 5677 5676 5674 5672 5670 5668 5666 5664 5661 5658 5654 5650 5645 5640 5635 5631 5627 5623 5620 5620 5620 5621 5623 5625 5627 5630 5632 5635 5638 5643 5648 5653 5658 5663 5668 5672 5676 5681 5687 5693 5698 5701 5703 5706 5709 5712 5715 5718 5721 5724 5728 5732 5735 5738 5741 5744 5747 5750 5751 5753 5755 5757
5690 5689 5688 5686 5684 5682 5681 5681 5680 5678 5677 5675 5673 5672 5670 5669 5667 5665 5663 5661 5659 5656 5653 5649 5644 5639 5634 5630 5626 5622 5619 5618 5619 5620 5621 5623 5624 5626 5628 5631 5634 5639 5645 5650 5655 5659 5664 5668 5672 5677 5683 5689 5693 5696 5698 5702 5705 5707 5710 5713 5716 5720 5723 5727 5730 5733 5736 5739 5742 5744 5746 5749 5751 5754
5685 5684 5682 5681 5679 5678 5677 5677 5676 5674 5673 5671 5670 5668 5667 5665 5664 5662 5661 5659 5657 5654 5651 5647 5642 5638 5633 5629 5626 5622 5618 5617 5618 5619 5620 5621 5622 5624 5626 5629 5632 5637 5642 5647 5651 5656 5660 5665 5669 5673 5679 5684 5687 5690 5694 5697 5701 5703 5706 5709 5712 5715 5719 5722 5725 5729 5731 5733 5736 5739 5742 5745 5748 5750
5680 5678 5677 5675 5674 5674 5673 5672 5671 5670 5669 5668 5666 5665 5664 5662 5661 5660 5658 5656 5654 5652 5649 5645 5641 5637 5633 5629 5625 5621 5618 5616 5617 5618 5618 5619 5620 5622 5625 5628 5632 5637 5642 5646 5649 5653 5657 5661 5665 5669 5674 5679 5683 5686 5690 5693 5696 5699 5701 5704 5707 5711 5714 5718 5721 5724 5726 5728 5731 5734 5737 5740 5743 5745
5675 5673 5671 5671 5670 5669 5668 5668 5667 5666 5665 5664 5663 5662 5661 5659 5658 5657 5655 5654 5652 5650 5647 5644 5640 5637 5633 5628 5625 5621 5618 5616 5615 5616 5616 5617 5618 5620 5623 5627 5631 5635 5640 5644 5647 5651 5655 5658 5662 5666 5670 5674 5678 5681 5685 5688 5692 5695 5697 5699 5703 5706 5710 5713 5716 5719 5722 5724 5726 5729 5731 5735 5738 5740
5670 5668 5666 5666 5666 5664 5663 5663 5663 5662 5661 5660 5659 5658 5658 5656 5655 5654 5653 5651 5649 5647 5645 5642 5639 5636 5632 5628 5624 5621 5617 5615 5614 5614 5614 5615 5617 5619 5622 5626 5630 5634 5638 5642 5645 5649 5653 5657 5660 5663 5667 5670 5672 5675 5679 5684 5687 5690 5692 5695 5699 5702 5705 5708 5712 5715 5717 5719 5721 5724 5727 5730 5733 5736
5665 5663 5662 5661 5661 5660 5659 5659 5659 5658 5658 5657 5656 5655 5654 5653 5652 5651 5650 5649 5647 5645 5643 5641 5638 5635 5631 5628 5625 5621 5617 5614 5613 5613 5614 5615 5616 5619 5622 5625 5629 5632 5636 5638 5642 5646 5650 5654 5657 5661 5664 5667 5669 5672 5675 5678 5682 5684 5688 5691 5694 5697 5700 5703 5707 5710 5712 5715 5717 5720 5723 5726 5729 5731
5660 5658 5657 5656 5656 5655 5655 5655 5655 5655 5654 5654 5653 5652 5651 5650 5649 5648 5647 5646 5645 5644 5642 5640 5637 5635 5632 5628 5625 5621 5617 5614 5612 5612 5613 5614 5615 5618 5621 5624 5627 5631 5633 5636 5639 5643 5647 5651 5654 5657 5660 5664 5666 5669 5671 5674 5677 5680 5683 5687 5690 5693 5695 5699 5702 5706 5708 5711 5713 5716 5718 5721 5723 5725
5655 5653 5652 5652 5651 5651 5651 5651 5651 5651 5651 5650 5650 5649 5648 5648 5647 5646 5645 5644 5643 5642 5641 5639 5637 5635 5632 5629 5626 5622 5618 5615 5612 5612 5613 5614 5615 5616 5619 5622 5625 5628 5631 5634 5638 5641 5644 5648 5651 5654 5657 5660 5663 5665 5667 5670 5673 5676 5680 5683 5686 5688 5691 5694 5698 5701 5704 5706 5708 5711 5713 5716 5718 5720
5651 5649 5648 5647 5647 5648 5647 5647 5647 5647 5647 5647 5646 5646 5645 5645 5644 5643 5643 5642 5641 5640 5639 5638 5636 5634 5632 5629 5627 5623 5620 5617 5614 5612 5613 5613 5614 5615 5618 5620 5623 5626 5629 5632 5636 5639 5642 5645 5648 5650 5652 5656 5658 5661 5663 5665 5668 5672 5676 5679 5681 5684 5687 5690 5694 5697 5699 5702 5704 5706 5708 5711 5713 5715
5647 5646 5645 5644 5644 5644 5643 5643 5643 5643 5643 5643 5643 5643 5642 5642 5642 5641 5640 5639 5639 5638 5637 5636 5635 5633 5632 5629 5627 5624 5621 5618 5616 5614 5612 5612 5613 5614 5616 5618 5620 5623 5626 5630 5633 5636 5639 5641 5643 5645 5649 5652 5654 5656 5659 5661 5664 5667 5671 5674 5677 5680 5683 5686 5689 5692 5695 5697 5699 5701 5704 5706 5708 5710
5645 5643 5642 5641 5640 5640 5640 5640 5640 5640 5640 5640 5640 5639 5639 5639 5639 5638 5638 5637 5636 5636 5635 5635 5634 5632 5631 5629 5627 5624 5621 5619 5617 5615 5613 5612 5613 5614 5615 5616 5617 5620 5624 5626 5629 5632 5635 5637 5639 5642 5646 5648 5649 5652 5655 5657 5660 5663 5666 5668 5672 5675 5678 5681 5684 5687 5689 5692 5694 5696 5698 5701 5702 5704
5642 5641 5640 5639 5638 5637 5637 5637 5637 5637 5637 5637 5637 5637 5636 5636 5636 5635 5635 5635 5634 5634 5633 5632 5632 5631 5630 5628 5626 5624 5622 5619 5618 5616 5614 5613 5613 5613 5614 5615 5616 5618 5621 5623 5625 5628 5631 5634 5635 5638 5641 5642 5644 5648 5651 5652 5655 5658 5661 5664 5667 5670 5673 5675 5678 5681 5683 5686 5688 5691 5693 5695 5697 5699
5638 5638 5637 5636 5635 5634 5634 5634 5634 5634 5634 5634 5634 5634 5633 5633 5633 5633 5633 5632 5632 5631 5631 5630 5630 5629 5628 5628 5626 5624 5622 5620 5618 5617 5616 5614 5614 5613 5613 5613 5615 5616 5618 5620 5622 5624 5626 5628 5631 5633 5636 5638 5640 5642 5645 5647 5649 5652 5655 5658 5662 5665 5668 5670 5673 5675 5678 5680 5683 5685 5688 5690 5692 5695
5635 5635 5634 5634 5633 5632 5632 5632 5631 5631 5631 5631 5631 5631 5631 5630 5630 5630 5630 5630 5630 5629 5629 5628 5627 5627 5626 5626 5625 5624 5622 5620 5619 5617 5616 5615 5614 5614 5613 5612 5613 5614 5615 5617 5619 5620 5621 5623 5625 5628 5631 5634 5635 5636 5638 5641 5643 5646 5649 5653 5656 5660 5663 5665 5667 5670 5672 5675 5677 5680 5683 5685 5687 5690
5631 5631 5631 5631 5630 5630 5629 5629 5629 5629 5628 5628 5628 5628 5627 5627 5627 5627 5627 5627 5627 5627 5626 5626 5625 5625 5624 5624 5624 5623 5622 5620 5619 5617 5616 5615 5614 5614 5613 5612 5612 5612 5613 5614 5616 5617 5619 5620 5621 5623 5626 5629 5631 5630 5631 5634 5637 5641 5644 5647 5651 5654 5657 5660 5663 5665 5668 5670 5672 5675 5678 5680 5682 5685
Wind_Speed
43 44 45 46 46 46 45 44 42 39 38 37 36 36 37 37 37 34 32 34 38 39 39 39 39 41 42 42 40 40 41 42 44 47 48 47 47 48 49 48 47 46 46 47 47 46 44 43 44 45 47 47 47 47 46 45 44 43 43 42 41 40 38 37 36 35 34 32 31 30 29 28 27 26
43 44 45 46 45 45 44 43 40 38 36 36 36 36 37 38 38 36 33 32 35 38 39 39 40 41 42 42 41 40 40 42 43 46 48 47 47 48 50 50 49 48 47 47 47 47 45 44 44 45 46 47 48 48 47 46 46 45 44 44 43 42 41 40 39 37 36 35 34 32 31 30 29 28
43 44 45 45 45 44 43 41 39 37 35 34 34 35 37 38 38 37 34 31 32 36 37 38 40 42 43 43 42 40 39 41 43 44 46 47 47 48 50 52 51 49 48 47 48 47 46 45 45 45 45 47 48 48 48 48 47 46 46 45 45 44 43 42 41 40 38 37 36 35 33 32 31 29
43 44 45 45 45 44 42 40 38 37 36 35 34 34 36 37 37 36 35 32 31 33 36 37 39 41 42 43 44 43 40 40 42 44 45 46 48 48 49 51 52 51 49 48 48 48 47 46 45 45 45 46 47 47 48 48 48 48 47 47 46 45 45 44 43 42 41 39 38 37 35 34 33 31
43 44 45 45 45 43 40 38 37 37 36 36 35 34 34 35 35 34 33 32 30 31 34 36 38 40 42 43 45 45 43 41 41 43 44 45 48 49 49 50 52 52 51 50 49 49 48 47 46 46 45 45 46 46 47 48 48 49 49 48 48 47 46 46 45 44 43 42 40 39 37 36 35 33
43 44 45 45 45 42 39 37 37 37 36 36 35 34 33 33 35 34 32 31 30 29 32 35 36 39 41 42 44 46 45 44 42 42 43 44 47 49 49 50 51 52 52 51 51 51 50 49 48 48 46 45 45 45 46 46 48 49 50 50 49 48 48 48 47 46 45 44 42 41 39 38 37 35
43 44 44 44 44 41 38 37 37 36 35 34 33 33 33 33 34 35 33 30 30 29 30 33 35 37 39 40 43 46 46 45 45 43 42 43 46 48 50 50 50 51 52 53 52 52 52 50 49 49 48 46 45 45 45 45 46 48 50 51 50 48 48 48 49 48 47 46 45 43 41 40 39 37
43 44 44 43 42 39 37 36 35 35 34 33 32 33 33 33 33 35 34 31 30 30 30 32 34 36 38 38 41 45 46 46 46 45 43 43 45 47 49 50 50 50 52 53 54 53 52 51 49 49 49 47 45 45 45 44 45 46 49 50 50 49 48 48 49 49 48 47 46 45 44 42 41 39
42 43 43 42 41 38 36 34 34 34 33 32 32 32 33 34 34 34 34 33 32 32 31 32 34 36 37 37 38 43 45 45 46 46 45 44 44 46 48 49 49 49 51 53 54 54 53 51 49 49 49 47 45 44 44 44 43 44 47 49 49 48 48 49 49 49 50 49 48 47 46 45 43 42
41 41 42 41 40 37 35 34 34 34 34 33 32 32 33 34 34 34 34 34 34 34 33 33 34 36 38 37 37 40 43 44 45 46 46 45 44 45 47 48 49 49 51 52 54 55 55 52 50 49 50 48 45 44 44 43 42 43 44 45 46 46 47 48 49 49 49 50 50 48 47 46 45 44
39 40 41 40 39 37 35 34 34 34 34 34 32 32 32 33 34 34 34 34 35 35 34 35 35 36 37 37 37 38 40 42 44 46 46 45 44 45 46 48 49 49 51 52 54 55 55 54 51 50 51 49 46 44 44 44 43 43 42 43 43 43 45 47 49 49 49 49 49 50 49 48 47 45
38 39 40 39 38 36 35 35 35 35 35 34 33 33 33 33 34 34 34 35 36 36 35 35 35 35 36 37 37 37 39 40 42 44 45 45 44 45 46 47 49 50 51 52 54 55 55 54 52 51 52 52 49 45 44 44 44 44 42 42 41 41 42 44 46 48 49 48 48 49 50 49 48 46
37 37 38 38 38 36 35 35 35 35 35 34 34 34 34 34 34 34 35 36 36 36 36 36 35 34 36 37 36 37 38 39 40 43 44 44 44 45 45 46 49 50 51 52 54 55 55 54 52 52 53 53 52 48 45 45 45 44 43 42 41 41 41 42 44 46 48 48 48 48 49 49 49 47
36 37 38 38 38 37 36 35 35 35 35 34 35 35 35 35 35 35 36 37 37 38 37 37 36 35 35 36 36 37 38 39 40 42 44 44 45 45 45 46 48 50 51 52 54 54 54 53 52 52 53 53 52 50 46 44 45 45 44 43 43 43 43 43 43 44 46 48 48 48 48 48 49 48
35 37 37 38 38 37 36 36 35 34 34 34 34 35 35 35 36 36 37 38 39 39 39 38 37 34 33 34 36 37 37 38 39 42 44 44 44 45 45 45 48 51 51 52 53 54 54 54 52 52 52 52 51 50 47 45 46 47 46 45 44 44 44 44 44 44 45 47 47 48 47 47 48 48
34 36 37 38 38 38 37 37 36 34 34 34 34 34 35 35 36 37 38 39 40 40 40 39 38 35 30 31 34 36 37 37 39 41 44 45 45 45 45 45 48 51 52 53 53 53 54 55 53 52 52 51 51 50 47 47 48 47 46 46 46 45 44 44 44 44 44 45 46 47 47 46 46 47
34 36 38 38 38 38 38 37 36 34 34 34 33 33 34 35 36 37 39 40 41 41 41 41 40 38 32 29 31 35 36 37 38 40 43 45 45 45 45 45 47 51 53 53 53 53 54 56 55 52 51 51 52 50 46 45 47 48 47 47 46 45 45 44 44 43 43 44 45 45 45 45 44 45
36 38 39 38 37 38 38 38 37 35 34 34 33 34 35 36 37 38 40 41 42 42 42 42 42 41 37 31 29 32 34 36 38 40 42 45 46 45 45 45 46 51 54 53 53 53 53 56 56 52 51 52 52 51 47 45 46 48 48 48 46 46 45 44 44 43 42 43 43 44 44 43 43 44
39 40 40 38 37 37 37 37 37 35 34 34 34 34 35 36 37 39 41 41 42 42 43 43 43 42 41 36 29 28 31 34 38 41 42 44 46 46 46 45 46 50 53 54 54 53 52 55 56 53 52 53 54 53 52 49 48 49 49 48 47 46 45 45 44 43 42 42 42 42 42 42 42 43
40 41 39 37 37 37 37 36 36 35 34 33 34 34 35 36 37 39 40 41 41 42 42 43 43 43 42 39 32 26 27 32 37 42 44 45 46 46 46 45 45 49 53 55 55 53 52 55 55 53 52 54 54 53 53 52 50 50 49 48 47 46 45 45 44 43 41 41 41 42 41 41 40 41
40 40 39 37 36 36 36 36 36 35 33 33 34 35 34 35 36 38 39 40 41 41 41 42 43 43 42 42 37 29 25 28 35 41 45 46 46 46 46 46 46 49 54 57 56 54 53 54 55 53 54 54 53 52 52 52 51 50 50 49 48 47 46 46 45 43 41 40 41 41 41 40 40 40
39 39 38 37 37 36 36 36 35 34 33 33 33 34 34 34 35 36 38 38 39 40 40 41 42 42 42 44 42 36 28 27 33 40 44 46 46 46 46 46 47 50 55 57 57 55 53 54 55 54 55 55 52 50 50 50 50 49 49 50 49 47 46 46 45 43 41 40 40 40 40 40 39 38
38 37 37 37 37 36 36 35 35 34 33 33 33 33 33 33 34 35 36 37 37 38 38 39 39 40 41 43 43 38 31 27 31 38 42 45 45 45 46 47 48 51 54 56 56 55 53 54 55 54 56 56 52 48 48 49 49 49 49 50 49 47 46 46 46 44 41 39 38 39 39 39 38 37
37 37 37 37 37 36 35 34 34 33 33 33 33 33 33 32 33 34 36 36 36 36 36 37 38 38 38 40 40 36 30 26 30 36 40 42 42 43 44 46 47 49 53 56 57 55 53 54 55 55 56 55 52 48 48 48 49 49 50 50 49 48 47 46 46 44 41 39 38 38 37 37 36 35
37 37 37 38 37 35 34 33 32 32 32 32 32 33 33 32 32 33 35 35 36 36 36 36 36 36 34 37 38 34 29 26 30 36 39 41 40 40 41 43 45 47 52 56 57 55 54 54 55 55 56 56 53 49 48 48 48 49 49 50 49 47 46 46 45 44 41 40 39 38 36 35 34 34
36 37 37 37 36 34 33 33 32 31 32 32 32 32 32 32 32 33 33 33 34 35 35 35 35 33 31 35 38 35 29 25 29 37 40 40 39 38 38 41 44 46 50 55 57 55 54 54 55 56 56 55 54 51 49 48 48 48 48 48 47 46 46 46 46 45 43 41 40 38 36 35 34 35
37 37 37 36 35 34 33 32 31 31 31 32 31 31 30 31 32 32 32 32 32 32 33 34 33 30 29 32 36 35 28 23 28 36 40 40 38 36 36 39 43 47 50 55 57 55 53 53 55 56 55 55 54 52 49 48 47 47 48 48 47 46 46 45 45 44 43 42 41 39 37 36 35 34
36 37 37 35 34 34 33 32 31 31 32 32 30 29 29 30 31 31 30 30 29 29 31 33 32 29 27 28 32 33 26 20 25 33 37 37 35 34 35 38 43 47 50 54 55 53 52 53 54 55 55 55 54 51 49 48 47 46 47 47 47 46 45 44 44 44 43 42 41 39 37 35 34 34
37 37 36 34 34 34 33 32 30 31 33 32 29 27 28 29 29 29 28 27 27 28 29 32 31 28 26 25 27 30 24 17 21 27 29 30 31 32 33 36 42 47 50 52 53 51 51 52 53 54 54 54 52 50 49 48 47 46 47 46 45 45 44 44 44 44 43 42 41 39 37 36 35 34
38 37 35 34 34 34 33 31 30 31 32 30 27 26 26 27 28 27 26 24 24 26 28 30 31 29 25 23 24 26 22 15 16 19 21 23 27 29 31 34 41 46 49 51 50 49 49 50 51 51 52 51 49 49 49 49 47 46 46 46 45 44 44 44 44 43 43 42 41 40 40 38 37 35
37 36 35 34 34 34 32 29 29 30 29 27 25 25 25 26 26 25 23 22 23 25 26 28 31 30 27 23 21 21 20 14 13 15 16 18 22 25 28 33 41 46 49 50 48 47 48 49 50 49 48 47 47 48 49 49 47 46 46 46 45 43 43 43 43 43 43 42 43 43 42 40 37 36
37 36 35 34 33 33 30 28 27 28 26 24 23 23 24 25 24 23 22 21 22 23 25 27 30 31 30 26 20 17 15 14 13 13 13 15 18 21 26 33 41 46 48 49 47 45 46 48 49 48 46 45 45 47 49 49 47 47 46 46 46 44 43 43 42 42 43 43 43 44 43 41 38 37
36 36 35 33 32 31 29 27 26 26 24 23 22 22 23 23 23 21 21 21 22 23 24 26 28 30 31 29 23 15 10 12 13 12 13 16 17 20 26 33 39 44 47 46 45 45 46 47 48 47 45 44 44 46 48 49 48 47 46 46 46 45 44 43 42 41 42 43 43 43 43 42 40 38
35 35 34 32 30 29 27 26 25 24 23 22 22 22 22 22 22 20 20 20 21 22 23 25 26 28 30 31 27 19 9 7 12 13 15 17 18 21 26 32 37 42 44 44 43 44 45 46 47 47 46 45 44 44 47 48 47 46 46 46 46 45 44 44 42 40 40 40 41 42 43 42 40 39
32 32 32 30 28 27 26 25 24 23 23 22 23 23 22 22 21 20 20 20 20 21 22 24 26 27 28 30 30 24 14 4 8 13 15 17 19 21 27 32 35 39 41 42 42 43 44 44 45 45 45 45 44 44 44 46 46 46 47 46 46 45 45 44 42 40 39 39 40 41 42 41 40 39
30 30 30 28 26 25 24 24 23 23 22 22 23 24 23 22 21 20 20 19 20 20 22 23 24 25 27 29 30 28 21 11 1 10 15 17 19 21 25 30 35 38 39 38 39 42 43 42 41 41 42 44 44 43 43 43 44 45 46 45 45 45 45 44 42 39 38 38 39 40 40 39 39 39
29 29 28 26 24 23 22 22 23 23 23 23 23 24 23 22 21 20 20 19 19 19 20 21 22 23 24 26 28 29 27 21 8 5 14 17 20 22 24 28 33 38 39 37 36 39 42 42 40 39 39 41 42 43 43 42 42 43 44 44 44 44 45 44 41 38 37 37 37 38 39 39 39 39
27 27 26 25 23 22 21 21 23 24 23 23 23 23 23 22 21 20 19 19 19 18 18 19 21 21 22 23 25 27 28 26 18 5 9 16 20 22 23 26 30 35 38 38 37 37 38 39 39 39 39 39 41 42 43 42 42 42 42 42 43 44 44 43 40 38 36 36 36 37 38 39 39 39
24 24 24 23 22 22 22 22 23 23 23 22 22 22 22 22 20 20 19 18 18 17 17 18 19 20 20 21 21 23 24 26 24 15 3 12 18 21 24 26 29 32 35 37 37 37 37 37 38 39 39 39 41 42 43 43 42 41 41 41 42 43 44 44 42 39 36 34 34 35 37 38 39 39
23 24 23 23 22 22 22 22 22 22 22 22 21 21 22 21 20 19 18 17 17 17 17 17 17 18 19 19 20 21 21 22 24 21 11 4 13 17 21 26 30 31 31 33 35 37 37 38 38 38 37 37 38 40 42 43 43 42 42 43 43 44 45 45 46 44 40 36 34 35 37 38 39 40
24 24 23 21 21 22 22 21 21 21 21 21 20 21 21 20 19 18 17 17 17 16 16 16 16 17 18 18 18 20 20 20 21 22 18 9 4 11 15 21 27 30 30 32 34 35 36 38 39 37 35 35 36 37 39 41 42 42 43 43 43 44 44 45 46 46 45 41 39 39 39 39 40 41
23 23 21 19 20 21 22 20 20 20 20 20 19 19 19 19 19 18 17 17 17 16 16 16 16 16 17 17 17 17 18 19 19 19 20 17 8 1 8 15 22 27 31 32 33 33 34 37 40 39 37 37 36 36 36 38 40 41 41 41 41 42 43 44 45 46 45 44 42 41 41 41 41 41
22 20 19 18 18 19 20 19 19 19 19 19 18 18 18 18 18 17 17 17 17 17 17 16 16 16 16 16 16 16 16 17 17 16 17 17 15 9 2 7 16 23 28 31 33 34 35 38 41 40 39 40 41 40 40 40 40 40 41 41 40 40 40 42 43 44 44 44 44 43 42 41 41 42
20 19 18 17 18 19 19 19 19 19 19 18 18 17 18 18 17 17 17 17 17 17 17 17 17 17 16 16 15 15 15 15 15 15 15 14 14 14 10 4 5 14 22 28 32 34 35 38 42 43 41 44 49 50 49 46 43 42 42 42 41 40 40 41 42 43 44 44 45 44 43 42 42 42
19 19 19 19 19 20 20 20 19 19 19 19 18 18 18 18 18 18 18 18 18 18 18 18 18 18 18 17 16 15 14 14 14 14 15 14 13 13 12 10 6 3 12 21 28 32 31 31 37 43 45 48 51 52 50 47 44 42 42 42 41 40 40 40 42 43 44 44 44 43 42 42 42 41
Wind_Direction
319 319 319 319 319 318 317 316 314 311 306 299 292 286 282 278 276 271 265 261 262 261 258 257 257 256 254 253 251 246 241 240 240 238 237 236 235 235 235 234 234 234 232 231 230 230 230 232 234 233 233 232 232 232 233 235 234 232 230 230 230 230 229 230 230 230 231 232 233 234 235 236 238 239
319 319 319 319 319 319 317 316 314 311 306 300 295 290 286 282 279 275 267 260 259 259 259 258 257 256 256 253 251 248 243 240 239 239 237 235 234 234 234 233 234 236 235 233 232 230 230 232 233 233 233 233 232 232 232 234 235 234 232 231 230 230 230 230 230 230 231 231 232 233 234 236 238 239
320 320 320 319 319 319 317 315 313 311 308 304 299 295 292 289 287 284 278 269 263 259 257 256 256 256 256 254 251 249 246 242 239 238 237 235 233 233 234 233 233 235 236 235 234 232 232 232 232 232 233 232 232 232 231 232 234 235 234 233 232 231 231 231 231 231 231 231 232 232 233 235 237 239
320 320 320 320 319 318 316 314 312 311 308 306 304 300 297 295 293 291 288 282 274 267 261 257 255 253 254 255 253 249 246 244 241 238 236 234 233 233 233 234 234 234 235 235 234 234 234 233 231 231 232 231 230 231 231 231 232 233 234 234 233 233 233 232 232 232 232 232 233 233 234 235 237 238
321 320 320 320 320 318 315 312 310 309 308 307 306 303 300 298 296 294 292 288 281 274 269 264 259 255 252 252 254 252 247 244 242 239 236 234 233 232 232 234 234 234 234 233 232 232 233 232 231 230 231 231 230 230 230 231 231 232 233 234 233 233 233 234 234 233 234 234 234 234 235 235 236 238
320 320 320 320 319 317 314 310 308 308 307 307 306 305 302 300 298 296 294 290 285 278 274 270 266 261 255 251 252 252 249 246 243 240 237 234 232 231 231 232 233 233 232 232 231 231 231 231 231 230 230 230 230 230 230 231 231 231 232 233 233 233 234 234 235 235 235 235 235 236 236 236 237 238
320 320 320 320 318 316 313 309 307 306 306 306 306 305 304 301 300 298 297 294 290 283 278 274 270 266 261 255 252 251 250 247 244 241 238 234 232 231 230 231 232 232 231 229 229 230 230 231 231 229 229 230 231 232 232 232 233 232 232 232 233 233 234 235 235 235 235 236 236 237 237 237 238 239
319 319 320 319 317 315 312 308 306 305 305 306 305 304 303 301 300 299 299 298 294 289 283 279 276 270 265 259 254 251 249 248 245 242 238 235 232 231 230 229 230 231 230 228 227 228 229 229 230 228 229 231 232 231 232 233 234 234 233 232 232 233 235 236 237 236 236 236 236 237 237 238 239 240
319 319 319 318 316 314 311 307 306 306 306 306 306 304 302 301 300 299 299 298 295 292 288 283 280 276 270 263 257 252 248 247 245 243 240 237 233 231 230 229 228 229 230 228 226 226 227 228 229 228 228 230 231 231 231 232 234 235 234 233 232 233 235 237 238 238 237 237 237 237 237 238 239 240
318 318 318 317 315 313 310 307 306 307 307 307 306 304 302 301 301 300 299 297 296 294 292 288 282 278 274 267 260 253 248 245 244 242 240 237 235 231 229 228 227 227 228 228 226 225 226 228 229 228 227 229 230 230 230 231 232 234 234 233 233 233 235 237 238 239 239 238 238 237 237 238 239 240
317 318 318 316 314 312 309 307 306 306 306 306 306 305 303 301 301 300 300 298 297 296 294 290 285 280 276 270 262 256 250 245 243 242 240 238 236 233 229 227 227 226 226 226 225 224 225 227 229 228 226 227 228 229 230 231 232 233 234 234 234 234 236 237 238 239 239 239 238 238 238 238 239 239
317 318 317 315 313 311 308 306 306 305 305 306 306 305 304 302 302 302 301 299 298 297 295 292 287 282 278 271 264 258 252 246 243 241 239 237 236 234 231 227 226 226 226 225 225 224 223 225 227 227 225 225 226 229 231 233 233 233 233 234 235 235 236 238 238 239 239 239 239 238 238 238 238 239
317 318 317 314 311 309 307 306 306 305 304 305 306 306 305 304 304 304 303 302 301 300 298 295 291 285 280 273 265 258 254 248 243 241 239 236 235 234 231 228 226 226 226 225 224 223 222 223 225 226 224 224 226 229 232 234 233 233 234 234 235 235 236 237 238 238 238 238 238 238 238 238 238 238
317 317 316 313 310 307 306 306 305 304 304 305 306 306 306 307 307 307 306 305 305 304 303 301 296 288 281 275 266 258 254 249 243 240 238 235 233 233 231 228 226 226 226 225 223 223 222 222 224 225 224 223 225 227 229 232 232 232 233 233 233 234 234 235 236 237 237 237 237 237 237 237 237 237
316 316 315 312 308 306 305 305 306 305 304 305 305 306 307 308 309 309 308 308 308 307 306 305 301 293 282 273 266 258 253 250 245 240 237 233 232 232 231 227 225 225 225 224 223 222 222 222 223 224 223 223 223 225 227 230 230 229 231 233 233 233 234 234 235 236 236 236 236 236 236 236 236 236
312 315 314 310 307 305 304 305 305 304 303 304 306 307 308 308 308 308 308 309 308 308 307 308 307 302 289 274 266 259 253 249 245 241 236 232 230 232 232 228 224 224 224 224 222 221 222 222 222 223 222 221 222 224 226 228 227 226 229 232 233 234 234 235 237 238 238 238 236 236 236 236 236 236
308 313 313 309 306 303 302 303 304 302 301 302 306 308 308 307 307 308 308 309 309 309 309 309 309 308 300 283 268 261 254 248 244 240 236 232 230 231 231 229 225 223 223 223 221 220 222 222 221 221 221 221 221 222 223 225 225 225 228 231 233 234 235 235 237 238 239 239 237 236 236 236 237 236
303 309 311 307 304 302 301 301 302 301 300 301 305 307 307 306 307 308 308 309 310 310 310 311 311 310 306 294 275 262 256 249 243 239 235 232 231 231 230 229 225 223 223 223 221 219 221 222 221 220 220 221 221 220 221 224 225 225 227 230 233 234 235 236 237 238 239 238 236 235 236 236 237 237
301 305 307 305 304 302 301 300 301 300 299 301 303 305 305 306 307 307 307 309 310 310 311 313 312 310 307 300 286 268 259 253 245 238 234 232 232 232 231 228 225 223 222 222 221 218 219 222 221 218 219 221 221 221 223 227 228 227 227 229 232 234 235 235 236 237 238 237 235 235 235 236 237 237
300 302 304 304 304 302 300 299 299 299 300 302 303 304 304 305 305 305 307 308 309 310 311 312 311 310 308 303 296 281 266 257 248 239 234 231 231 231 231 228 224 221 221 222 221 217 216 220 220 216 217 220 221 222 224 226 228 227 226 228 230 233 234 234 235 236 236 235 234 234 235 237 237 236
299 301 303 304 303 301 300 299 298 300 302 304 304 303 303 304 304 304 306 307 308 310 310 310 310 311 308 304 301 296 280 262 250 240 234 231 230 229 229 227 222 219 219 220 220 217 215 218 218 214 214 217 218 219 221 224 226 226 225 226 229 231 232 233 234 235 235 235 234 235 235 237 237 236
299 300 301 302 302 300 299 298 298 300 303 304 303 303 302 303 303 303 304 306 308 309 310 310 310 309 306 301 300 300 291 268 249 239 233 231 230 229 227 224 221 218 217 218 219 217 214 216 217 213 212 215 216 217 219 222 225 226 225 225 227 229 231 232 233 234 235 235 235 235 235 236 237 238
299 300 301 302 302 299 297 298 298 300 302 303 303 303 303 302 302 303 304 305 307 309 309 309 308 306 303 299 296 297 293 271 248 238 232 229 230 230 227 223 220 217 215 216 218 216 214 215 216 213 212 214 215 216 219 222 224 226 225 225 226 228 230 231 231 233 234 235 235 235 235 236 237 238
298 299 300 301 301 298 296 297 298 300 301 302 303 303 303 303 303 303 305 306 308 310 310 310 309 306 303 299 297 298 294 271 245 236 233 229 229 230 227 224 221 217 214 216 217 215 213 214 215 214 213 213 214 217 219 222 223 224 224 224 225 228 229 230 230 231 233 234 234 234 235 235 236 237
297 298 299 301 301 298 296 297 298 298 299 301 303 304 304 304 304 304 306 308 309 311 313 314 314 311 307 303 301 302 297 272 241 232 232 231 229 229 228 226 223 217 214 216 217 214 212 213 214 214 213 213 214 217 219 221 223 224 225 225 225 227 229 229 228 229 230 231 232 232 233 235 235 236
296 297 298 300 301 298 296 296 296 297 299 301 303 303 303 303 304 305 307 309 310 313 318 321 319 316 312 307 304 305 300 274 241 228 230 232 232 230 230 228 224 217 214 216 216 214 212 212 213 214 213 212 213 217 219 221 223 224 226 226 226 227 228 228 228 228 228 228 229 230 232 234 235 235
295 295 297 299 300 297 295 294 295 298 300 302 302 302 302 302 304 306 308 309 312 318 324 327 325 320 317 312 307 306 300 273 242 229 228 231 233 232 231 228 222 216 213 214 215 212 210 211 213 214 213 212 213 216 219 221 222 224 225 226 226 227 227 227 227 228 229 228 228 228 230 233 235 236
292 293 295 299 300 297 293 293 295 299 301 301 301 301 301 302 304 307 309 310 316 323 329 333 331 325 321 317 309 305 298 271 244 234 229 230 231 231 231 228 221 215 212 213 213 211 208 210 212 213 212 211 212 215 219 221 222 224 224 224 225 226 227 226 226 228 229 228 228 228 230 233 234 234
291 292 295 298 298 295 292 292 295 299 300 300 301 301 300 301 304 307 309 311 319 327 332 336 337 332 328 322 312 305 297 270 246 241 236 232 231 229 230 227 219 212 210 211 211 210 208 210 212 212 211 210 212 215 219 221 222 223 223 223 224 226 227 226 226 227 228 228 227 227 229 231 232 231
290 292 295 298 296 293 291 291 293 296 297 298 300 299 299 301 304 306 307 311 320 328 332 337 341 341 337 331 320 309 298 272 248 246 243 237 233 230 229 225 216 209 208 209 210 210 208 209 210 211 210 210 213 216 219 220 221 222 222 222 224 226 227 227 226 227 227 227 227 228 229 230 230 230
288 291 295 296 293 291 290 289 289 292 294 297 299 299 300 302 304 305 306 310 320 327 331 336 343 347 347 342 331 316 300 274 247 245 245 239 234 230 225 218 210 206 205 207 209 210 208 206 207 208 209 211 214 217 218 220 221 221 221 222 224 227 228 227 227 227 227 227 227 228 230 231 231 230
287 290 292 292 291 289 287 285 286 289 293 297 300 300 301 302 303 302 303 307 316 324 330 336 343 350 353 351 344 328 304 274 248 240 241 238 231 224 217 211 206 204 204 206 209 210 207 204 205 207 209 211 215 217 218 219 221 222 222 224 226 228 228 229 228 228 228 227 227 228 230 231 231 231
288 290 290 290 290 290 285 282 284 287 292 296 300 301 301 301 301 300 300 305 314 322 329 335 342 350 354 354 354 349 320 277 253 236 229 229 224 214 209 206 204 203 205 208 211 211 206 203 204 207 209 211 215 217 219 220 221 222 223 225 227 228 229 229 230 230 230 229 228 228 229 231 231 231
290 290 289 289 291 290 284 279 281 285 290 295 299 301 301 300 300 298 298 303 311 319 326 332 339 347 353 355 357 1 354 287 256 236 221 219 214 206 203 203 202 203 206 210 213 212 207 204 204 207 209 211 214 217 220 220 221 222 224 226 228 229 229 229 230 231 231 230 229 228 229 230 231 232
289 288 288 290 293 289 281 276 278 284 289 294 298 300 300 300 299 297 297 300 308 316 323 330 337 344 350 355 357 1 11 346 247 234 220 212 207 202 202 203 202 203 207 211 213 212 209 207 207 208 210 212 214 216 218 219 221 223 225 226 228 229 229 229 230 231 232 232 231 230 229 230 230 231
288 286 288 292 293 288 280 275 276 283 288 292 296 298 299 299 297 295 295 298 305 314 320 327 334 340 346 351 354 359 10 23 252 225 220 212 204 202 204 205 206 206 208 210 211 210 209 208 209 210 212 214 215 216 216 217 220 223 225 227 228 229 230 229 229 231 233 234 233 231 231 231 231 231
290 289 291 291 289 285 279 275 276 281 286 290 293 295 296 296 295 294 295 297 303 310 317 322 329 336 341 347 352 356 5 17 36 194 214 214 206 203 206 208 209 211 213 213 211 209 210 213 215 214 214 215 216 216 217 219 221 222 225 227 228 228 229 229 229 232 235 235 233 231 230 231 231 231
295 294 291 287 285 282 277 274 276 280 283 286 289 291 292 292 292 292 293 295 299 305 310 315 321 329 336 342 349 355 360 9 23 62 199 213 211 206 207 210 210 212 216 219 219 216 215 217 219 219 218 217 217 218 220 222 223 223 224 226 227 227 227 227 228 231 233 233 231 230 229 230 231 232
303 300 291 284 282 280 276 274 274 276 279 282 284 286 287 288 290 291 291 293 296 299 304 309 315 323 330 337 345 352 357 3 13 28 110 202 211 211 210 211 212 212 214 218 221 221 220 218 219 220 220 220 220 221 221 223 225 225 225 226 227 228 227 225 225 227 229 229 229 230 230 229 230 232
304 304 298 290 284 280 277 276 275 274 276 279 281 282 283 285 288 290 290 292 293 294 298 304 309 316 324 331 339 347 353 359 6 16 34 156 202 212 214 213 213 212 211 214 218 220 219 218 218 219 221 222 223 224 224 224 224 225 226 226 227 227 227 226 225 227 230 233 233 233 233 231 231 232
297 301 301 296 288 283 280 278 277 276 277 279 280 281 282 284 287 289 291 293 293 294 296 300 305 311 317 324 332 340 348 355 0 7 18 35 174 207 213 214 214 213 214 216 217 217 218 220 220 219 220 223 225 226 227 227 227 227 227 227 228 228 228 229 229 230 233 235 235 234 234 233 232 233
293 297 300 297 291 286 283 280 278 278 279 279 280 281 282 284 286 288 291 293 295 295 297 300 304 308 312 317 324 332 340 348 353 359 8 15 19 216 204 206 210 213 216 219 219 217 216 219 220 218 218 222 225 227 228 228 228 229 229 229 230 230 230 230 231 231 232 233 233 233 233 233 233 233
290 293 296 296 293 290 287 284 280 280 281 281 281 281 282 284 286 288 290 292 294 295 297 299 302 304 306 310 316 322 330 339 345 350 357 5 8 5 326 205 204 208 212 217 221 219 216 218 219 217 214 217 221 226 228 228 228 229 229 229 229 229 230 230 230 230 231 231 230 230 231 233 234 235
287 288 291 293 291 289 287 284 282 281 281 281 281 282 283 285 287 289 290 291 292 293 295 296 299 302 303 305 309 314 320 326 334 340 345 351 360 2 358 340 217 205 206 211 216 217 215 215 216 215 214 214 213 212 214 217 220 222 226 229 229 229 230 231 230 229 229 230 230 231 233 235 236 237
287 286 286 287 287 285 283 281 279 279 279 279 281 283 284 287 289 290 290 290 290 291 293 294 296 298 301 303 305 307 312 316 321 328 334 338 345 352 354 354 350 247 211 209 211 212 212 211 209 208 211 214 211 204 201 205 210 214 220 228 231 232 232 232 230 230 230 230 230 231 233 236 239 238